Radiation Dose at Monitoring Post of Fukushima Daini Nuclear Power Station
Date,Time,MP-1(microSv/h),MP-2(microSv/h),MP-3(microSv/h),MP-4(microSv/h),MP-5(microSv/h),MP-6(microSv/h),MP-7(microSv/h),Wind Direction,Wind Velocity(m/s),Rain
2021/11/26,00:00,0.159,0.146,0.227,0.223,0.226,0.124,0.079,west,7.9,No
2021/11/26,00:10,0.158,0.146,0.228,0.223,0.226,0.124,0.079,west,7.3,No
2021/11/26,00:20,0.159,0.146,0.227,0.221,0.226,0.125,0.078,west-northwest,7.3,No
2021/11/26,00:30,0.159,0.146,0.227,0.220,0.226,0.124,0.079,west-northwest,5.1,No
2021/11/26,00:40,0.158,0.146,0.227,0.221,0.225,0.125,0.079,west-northwest,5.8,No
2021/11/26,00:50,0.158,0.145,0.228,0.222,0.226,0.126,0.078,west-northwest,7.0,No
2021/11/26,01:00,0.160,0.145,0.228,0.222,0.226,0.124,0.079,west,7.3,No
2021/11/26,01:10,0.159,0.146,0.228,0.222,0.226,0.124,0.079,west-northwest,7.0,No
2021/11/26,01:20,0.159,0.146,0.226,0.222,0.227,0.124,0.079,west,8.5,No
2021/11/26,01:30,0.159,0.146,0.227,0.222,0.226,0.124,0.078,west,9.5,No
2021/11/26,01:40,0.159,0.145,0.227,0.222,0.227,0.125,0.079,west-northwest,8.6,No
2021/11/26,01:50,0.159,0.146,0.228,0.222,0.226,0.123,0.078,west,8.4,No
2021/11/26,02:00,0.159,0.144,0.226,0.223,0.227,0.124,0.078,west,9.6,No
2021/11/26,02:10,0.159,0.145,0.227,0.222,0.226,0.124,0.079,west-northwest,8.8,No
2021/11/26,02:20,0.159,0.146,0.227,0.222,0.226,0.124,0.079,west,7.9,No
2021/11/26,02:30,0.158,0.146,0.228,0.222,0.227,0.124,0.079,west,8.4,No
2021/11/26,02:40,0.159,0.145,0.226,0.222,0.226,0.124,0.079,west,7.7,No
2021/11/26,02:50,0.158,0.146,0.228,0.220,0.225,0.124,0.078,west,6.9,No
2021/11/26,03:00,0.159,0.145,0.227,0.221,0.226,0.124,0.079,west-northwest,7.0,No
2021/11/26,03:10,0.159,0.145,0.226,0.222,0.226,0.124,0.079,west,7.3,No
2021/11/26,03:20,0.159,0.145,0.226,0.222,0.226,0.125,0.079,west,10.6,No
2021/11/26,03:30,0.157,0.145,0.227,0.220,0.227,0.124,0.079,west,7.7,No
2021/11/26,03:40,0.159,0.145,0.228,0.223,0.227,0.125,0.079,west,7.4,No
2021/11/26,03:50,0.159,0.145,0.227,0.223,0.226,0.124,0.079,west,7.3,No
2021/11/26,04:00,0.158,0.145,0.227,0.221,0.226,0.125,0.078,west-northwest,6.4,No
2021/11/26,04:10,0.158,0.146,0.226,0.221,0.226,0.125,0.079,west-northwest,6.6,No
2021/11/26,04:20,0.159,0.145,0.227,0.222,0.226,0.124,0.079,west-northwest,5.3,No
2021/11/26,04:30,0.159,0.146,0.227,0.222,0.226,0.124,0.079,west-northwest,5.0,No
2021/11/26,04:40,0.159,0.146,0.226,0.221,0.227,0.125,0.079,west-northwest,5.0,No
2021/11/26,04:50,0.159,0.145,0.226,0.222,0.226,0.124,0.078,west-northwest,3.2,No
2021/11/26,05:00,0.159,0.146,0.227,0.221,0.227,0.125,0.079,west-northwest,3.8,No
2021/11/26,05:10,0.159,0.146,0.227,0.222,0.227,0.125,0.078,west,2.4,No
2021/11/26,05:20,0.158,0.145,0.226,0.222,0.226,0.124,0.079,west,3.3,No
2021/11/26,05:30,0.158,0.145,0.227,0.221,0.226,0.124,0.079,west,2.0,No
2021/11/26,05:40,0.158,0.146,0.228,0.222,0.226,0.123,0.079,southwest,1.6,No
2021/11/26,05:50,0.158,0.145,0.228,0.222,0.226,0.125,0.078,west,2.4,No
2021/11/26,06:00,0.159,0.145,0.226,0.221,0.226,0.124,0.079,west-southwest,2.1,No
2021/11/26,06:10,0.158,0.146,0.227,0.222,0.227,0.123,0.078,southwest,1.4,No
2021/11/26,06:20,0.158,0.146,0.227,0.221,0.226,0.124,0.079,southwest,2.1,No
2021/11/26,06:30,0.158,0.145,0.227,0.221,0.226,0.123,0.079,southwest,2.9,No
2021/11/26,06:40,0.158,0.144,0.227,0.222,0.224,0.124,0.079,southwest,3.8,No
2021/11/26,06:50,0.159,0.145,0.226,0.221,0.227,0.124,0.078,west-southwest,4.9,No
2021/11/26,07:00,0.159,0.145,0.227,0.222,0.226,0.123,0.079,west-southwest,5.1,No
2021/11/26,07:10,0.159,0.145,0.226,0.221,0.225,0.124,0.079,west,5.6,No
2021/11/26,07:20,0.158,0.145,0.227,0.221,0.225,0.123,0.078,west-northwest,4.8,No
2021/11/26,07:30,0.159,0.146,0.226,0.222,0.227,0.123,0.079,west-northwest,3.7,No
2021/11/26,07:40,0.159,0.145,0.227,0.221,0.225,0.124,0.078,west,2.3,No
2021/11/26,07:50,0.160,0.145,0.227,0.220,0.226,0.124,0.080,southwest,2.0,No
2021/11/26,08:00,0.159,0.145,0.227,0.220,0.227,0.124,0.078,southwest,2.6,No
2021/11/26,08:10,0.159,0.146,0.227,0.221,0.227,0.124,0.079,west-southwest,2.8,No
2021/11/26,08:20,0.158,0.145,0.227,0.221,0.225,0.124,0.079,west-southwest,3.6,No
2021/11/26,08:30,0.159,0.145,0.226,0.222,0.226,0.124,0.079,west,5.2,No
2021/11/26,08:40,0.159,0.146,0.227,0.221,0.226,0.125,0.078,west,5.6,No
2021/11/26,08:50,0.159,0.145,0.227,0.220,0.226,0.123,0.079,west,7.8,No
2021/11/26,09:00,0.159,0.146,0.226,0.221,0.227,0.123,0.078,west-northwest,8.4,No
2021/11/26,09:10,0.159,0.146,0.227,0.220,0.225,0.123,0.079,west-southwest,10.6,No
2021/11/26,09:20,0.159,0.145,0.228,0.221,0.225,0.123,0.078,west,8.8,No
2021/11/26,09:30,0.159,0.145,0.227,0.221,0.228,0.124,0.079,west-northwest,9.0,No
2021/11/26,09:40,0.158,0.144,0.226,0.220,0.225,0.124,0.079,west,9.0,No
2021/11/26,09:50,0.158,0.144,0.228,0.221,0.226,0.125,0.079,west,10.3,No
2021/11/26,10:00,0.159,0.145,0.227,0.221,0.225,0.124,0.078,west-northwest,9.2,No
2021/11/26,10:10,0.157,0.144,0.227,0.221,0.227,0.123,0.079,west,10.9,No
2021/11/26,10:20,0.158,0.144,0.225,0.222,0.224,0.123,0.079,west,8.7,No
2021/11/26,10:30,0.158,0.145,0.224,0.221,0.227,0.124,0.079,west-southwest,10.9,No
2021/11/26,10:40,0.159,0.145,0.227,0.223,0.225,0.124,0.079,west,12.0,No
2021/11/26,10:50,0.157,0.146,0.225,0.220,0.227,0.124,0.079,west,8.7,No
2021/11/26,11:00,0.158,0.145,0.226,0.222,0.224,0.125,0.079,west,7.0,No
2021/11/26,11:10,0.158,0.146,0.226,0.221,0.226,0.125,0.079,west,6.8,No
2021/11/26,11:20,0.159,0.145,0.227,0.222,0.226,0.124,0.079,west,8.4,No
2021/11/26,11:30,0.157,0.144,0.228,0.221,0.226,0.124,0.079,west-northwest,8.1,No
2021/11/26,11:40,0.159,0.146,0.225,0.222,0.226,0.124,0.080,west-northwest,10.3,No
2021/11/26,11:50,0.157,0.145,0.227,0.221,0.226,0.125,0.079,west-northwest,6.2,No
2021/11/26,12:00,0.158,0.146,0.226,0.221,0.227,0.124,0.078,west,7.1,No
2021/11/26,12:10,0.159,0.145,0.227,0.222,0.226,0.125,0.079,west,9.8,No
2021/11/26,12:20,0.159,0.146,0.227,0.221,0.228,0.125,0.079,west-northwest,8.5,No
2021/11/26,12:30,0.157,0.145,0.228,0.222,0.225,0.124,0.079,west,11.5,No
2021/11/26,12:40,0.158,0.146,0.226,0.221,0.227,0.125,0.078,west-northwest,9.0,No
2021/11/26,12:50,0.158,0.145,0.227,0.222,0.226,0.124,0.079,west-northwest,6.4,No
2021/11/26,13:00,0.159,0.146,0.226,0.221,0.227,0.124,0.078,west-northwest,12.4,No
2021/11/26,13:10,0.159,0.145,0.228,0.221,0.227,0.124,0.080,west-northwest,8.7,No
2021/11/26,13:20,0.161,0.145,0.229,0.222,0.228,0.125,0.078,west-northwest,5.7,No
2021/11/26,13:30,0.159,0.146,0.227,0.223,0.229,0.125,0.079,west-northwest,6.2,No
2021/11/26,13:40,0.160,0.144,0.229,0.222,0.227,0.124,0.078,west-northwest,10.1,No
2021/11/26,13:50,0.160,0.146,0.226,0.223,0.227,0.125,0.079,west-northwest,8.4,No
2021/11/26,14:00,0.159,0.145,0.228,0.222,0.226,0.124,0.078,west-northwest,8.3,No
2021/11/26,14:10,0.160,0.145,0.228,0.222,0.225,0.124,0.079,west-northwest,7.0,No
2021/11/26,14:20,0.160,0.145,0.226,0.221,0.226,0.124,0.079,west-northwest,8.4,No
2021/11/26,14:30,0.160,0.145,0.228,0.222,0.228,0.123,0.079,west,7.8,No
2021/11/26,14:40,0.159,0.145,0.228,0.222,0.227,0.124,0.079,west-northwest,10.3,No
2021/11/26,14:50,0.160,0.146,0.227,0.222,0.228,0.124,0.078,west-northwest,8.1,No
2021/11/26,15:00,0.159,0.147,0.228,0.222,0.227,0.124,0.079,west-northwest,7.5,No
2021/11/26,15:10,0.159,0.146,0.228,0.222,0.229,0.123,0.079,west-northwest,5.7,No
2021/11/26,15:20,0.159,0.146,0.228,0.223,0.227,0.125,0.080,west-northwest,4.6,No
2021/11/26,15:30,0.160,0.146,0.228,0.223,0.227,0.125,0.079,west-northwest,3.1,No
2021/11/26,15:40,0.159,0.146,0.228,0.222,0.226,0.126,0.078,west-northwest,4.8,No
2021/11/26,15:50,0.159,0.146,0.228,0.223,0.227,0.125,0.080,west-northwest,6.5,No
2021/11/26,16:00,0.159,0.146,0.227,0.223,0.228,0.125,0.079,west-northwest,7.0,No
2021/11/26,16:10,0.159,0.146,0.229,0.223,0.227,0.125,0.079,west-northwest,6.1,No
2021/11/26,16:20,0.160,0.146,0.227,0.223,0.225,0.124,0.079,northwest,5.3,No
2021/11/26,16:30,0.160,0.146,0.226,0.222,0.226,0.125,0.080,west-northwest,5.2,No
2021/11/26,16:40,0.159,0.147,0.228,0.222,0.227,0.125,0.079,west-northwest,3.8,No
2021/11/26,16:50,0.159,0.146,0.229,0.223,0.227,0.124,0.078,west,1.2,No
2021/11/26,17:00,0.159,0.146,0.226,0.224,0.226,0.125,0.079,-,CALM,No
2021/11/26,17:10,0.159,0.146,0.227,0.221,0.227,0.125,0.079,-,CALM,No
2021/11/26,17:20,0.159,0.146,0.228,0.222,0.227,0.124,0.079,west-northwest,0.9,No
2021/11/26,17:30,0.159,0.146,0.227,0.222,0.227,0.124,0.079,north,1.3,No
2021/11/26,17:40,0.159,0.146,0.227,0.223,0.227,0.124,0.080,north-northeast,1.6,No
2021/11/26,17:50,0.159,0.145,0.227,0.221,0.227,0.124,0.079,north,4.3,No
2021/11/26,18:00,0.158,0.146,0.228,0.222,0.227,0.124,0.079,north-northwest,4.9,No
2021/11/26,18:10,0.159,0.145,0.228,0.223,0.226,0.124,0.079,north-northwest,4.3,No
2021/11/26,18:20,0.160,0.145,0.228,0.222,0.226,0.125,0.079,north-northwest,4.3,No
2021/11/26,18:30,0.160,0.147,0.229,0.222,0.228,0.124,0.079,north-northwest,5.3,No
2021/11/26,18:40,0.158,0.146,0.228,0.223,0.227,0.124,0.079,north-northwest,3.1,Yes
2021/11/26,18:50,0.160,0.146,0.227,0.224,0.227,0.124,0.079,-,CALM,Yes
2021/11/26,19:00,0.161,0.147,0.228,0.224,0.229,0.125,0.081,northeast,1.9,Yes
2021/11/26,19:10,0.164,0.153,0.234,0.228,0.231,0.131,0.085,north,1.2,Yes
2021/11/26,19:20,0.169,0.156,0.238,0.232,0.235,0.133,0.087,northeast,1.2,Yes
2021/11/26,19:30,0.171,0.157,0.238,0.231,0.237,0.134,0.089,northeast,1.3,Yes
2021/11/26,19:40,0.174,0.161,0.241,0.235,0.238,0.137,0.093,northeast,1.2,Yes
2021/11/26,19:50,0.176,0.163,0.244,0.236,0.239,0.139,0.093,northwest,1.6,Yes
2021/11/26,20:00,0.177,0.165,0.246,0.238,0.242,0.142,0.096,northeast,1.5,Yes
2021/11/26,20:10,0.178,0.165,0.245,0.238,0.240,0.142,0.097,east-northeast,3.6,Yes
2021/11/26,20:20,0.175,0.162,0.242,0.235,0.239,0.140,0.094,east-northeast,2.1,Yes
2021/11/26,20:30,0.174,0.161,0.241,0.236,0.240,0.138,0.093,north-northwest,3.1,Yes
2021/11/26,20:40,0.173,0.161,0.240,0.234,0.239,0.138,0.093,north-northwest,4.0,Yes
2021/11/26,20:50,0.171,0.160,0.239,0.232,0.238,0.137,0.092,north-northwest,4.1,Yes
2021/11/26,21:00,0.175,0.162,0.240,0.235,0.240,0.141,0.094,north-northwest,6.1,Yes
2021/11/26,21:10,0.177,0.164,0.242,0.235,0.242,0.142,0.098,north-northwest,3.8,Yes
2021/11/26,21:20,0.178,0.165,0.243,0.237,0.242,0.144,0.101,north-northwest,3.9,Yes
2021/11/26,21:30,0.179,0.167,0.244,0.238,0.245,0.148,0.103,northwest,2.7,Yes
2021/11/26,21:40,0.180,0.168,0.245,0.239,0.246,0.150,0.104,north,2.9,Yes
2021/11/26,21:50,0.179,0.167,0.244,0.238,0.247,0.150,0.105,north,2.9,Yes
2021/11/26,22:00,0.177,0.165,0.242,0.237,0.245,0.147,0.103,north-northwest,3.7,Yes
2021/11/26,22:10,0.177,0.164,0.242,0.236,0.245,0.145,0.102,northwest,6.3,Yes
2021/11/26,22:20,0.179,0.167,0.244,0.238,0.247,0.147,0.103,northwest,7.0,Yes
2021/11/26,22:30,0.179,0.167,0.243,0.237,0.246,0.145,0.102,north-northwest,6.5,Yes
2021/11/26,22:40,0.177,0.164,0.241,0.235,0.242,0.143,0.099,north-northwest,4.7,Yes
2021/11/26,22:50,0.174,0.160,0.238,0.232,0.240,0.140,0.096,north-northwest,4.0,Yes
2021/11/26,23:00,0.170,0.158,0.235,0.229,0.238,0.137,0.093,north-northwest,3.9,Yes
2021/11/26,23:10,0.167,0.155,0.233,0.227,0.234,0.134,0.090,north-northwest,5.1,Yes
2021/11/26,23:20,0.166,0.153,0.232,0.225,0.233,0.131,0.088,north-northwest,5.9,Yes
2021/11/26,23:30,0.164,0.151,0.228,0.223,0.230,0.129,0.087,north-northwest,6.8,No
2021/11/26,23:40,0.162,0.151,0.227,0.222,0.230,0.129,0.084,north-northwest,5.8,No
2021/11/26,23:50,0.161,0.149,0.226,0.221,0.228,0.127,0.083,north-northwest,5.9,No
